Regional Weather Roundup
Issued by NWS

Home | Current Version | Previous Version | Text Only | Print | Product List | Glossary Off
Versions: 1 2 3 4 5 6 7 8 9 10 11 12 13 14 15 16 17 18 19 20 21 22 23 24 25 26 27 28 29 30 31 32 33 34 35 36 37 38 39 40 41 42 43 44 45 46 47 48 49 50

000
ASUS43 KDMX 020307
RWRIA

WEATHER ROUNDUP FOR IOWA
NATIONAL WEATHER SERVICE DES MOINES IA
1000 PM CDT TUE SEP 01 2015

NOTE: "FAIR" INDICATES FEW OR NO CLOUDS BELOW 12,000 FEET WITH NO
SIGNIFICANT WEATHER AND/OR OBSTRUCTIONS TO VISIBILITY.

* - THESE STATIONS ARE NOT NWS STATIONS...THUS NOT UNDER NWS
QUALITY CONTROL.  THEY ALSO DO NOT REPORT WEATHER SUCH
AS PRECIPITATION OR FOG.

IAZ001>003-012>014-020>022-031>034-043>046-020400-
   NORTHWEST IOWA

CITY           SKY/WX    TMP DP  RH WIND       PRES   REMARKS
CARROLL *      MOCLDY    75  72  88 S7        29.95R
CHEROKEE *     MOCLDY    76  73  92 S8        29.90F
DENISON *      PTCLDY    75  70  83 S12       29.92R
LE MARS *      PTCLDY    77  73  88 SE12      29.89R
ORANGE CITY *  PTCLDY    77  73  88 S8        29.89F
SHELDON *      MOCLDY    75  73  94 S13       29.88F
SIOUX CITY     PTCLDY    77  70  79 SE10      29.88R
SPENCER        CLOUDY    77  70  79 S14       29.91F HAZE
STORM LAKE *   MOCLDY    75  72  88 S9        29.94S
$$

IAZ055>058-069>071-079>083-090>094-020400-
   SOUTHWEST IOWA

CITY           SKY/WX    TMP DP  RH WIND       PRES   REMARKS
ATLANTIC *     CLEAR     79  70  73 S8        29.96R HX  81
AUDUBON *      CLEAR     75  70  83 S3        29.97R
CLARINDA *     PTCLDY    79  70  73 S10       29.98R HX  81
COUNCIL BLFS * PTCLDY    77  68  73 S16G22    29.94R
CRESTON *      PTCLDY    75  68  78 S8        30.01R
LAMONI         CLEAR     77  69  76 S7        30.01R
RED OAK *      CLOUDY    79  70  73 S12       29.96R HX  81
SHENANDOAH *   MOCLDY    79  70  73 S13G22    29.95R HX  81
$$

IAZ047>049-059>061-072>074-084-020400-
   CENTRAL IOWA

CITY           SKY/WX    TMP DP  RH WIND       PRES   REMARKS
AMES           PTCLDY    72  70  93 S5        29.97R
ANKENY *       CLEAR     75  72  88 S5        29.97S
CHARITON *     CLEAR     75  70  83 S7        30.00S
DES MOINES     PTCLDY    77  68  73 S6        29.97S
GRINNELL*      PTCLDY    75  70  83 S8        30.01R
KNOXVILLE *    CLEAR     75  70  83 S7        29.98F
MARSHALLTOWN   PTCLDY    76  71  85 SE7       29.98R
PELLA *        CLEAR     75  73  93 SE6       30.01S
PERRY *          N/A     75  71  89 S6        29.97R
$$

IAZ004>006-015-016-023>025-035-036-020400-
   NORTH CENTRAL IOWA

CITY           SKY/WX    TMP DP  RH WIND       PRES   REMARKS
ALGONA *       CLEAR     75  73  94 SE8       29.94S
CLARION *      MOCLDY    75  72  88 S8        29.96R
ESTHERVILLE    MOCLDY    73  71  93 SE8       29.92F
FORT DODGE *   MOCLDY    79  70  73 S8        29.96S HX  81
MASON CITY     CLEAR     72  71  97 S6        29.98R
FOREST CITY *    N/A     70  70 100 SE5       29.96S
IOWA FALLS *     N/A     75  72  88 S6        29.99R
$$

IAZ007>011-017>019-026>030-037>042-050>054-066-020400-
   NORTHEAST IOWA

CITY           SKY/WX    TMP DP  RH WIND       PRES   REMARKS
CEDAR RAPIDS   MOCLDY    74  72  93 S3        30.00R
CHARLES CITY * CLEAR     73  73 100 S6        29.99R
CLINTON *      PTCLDY    73  70  88 S6        30.04R
DECORAH *      CLEAR     77  73  88 S6        29.98R
DUBUQUE        MOCLDY    74  71  91 SW8       30.02R
MONTICELLO *   MOCLDY    73  72  94 CALM      30.00R
OELWEIN *      PTCLDY    75  73  94 S7        30.00R
WATERLOO       PTCLDY    77  73  87 S7        29.97R
$$

IAZ064-065-067-068-078-020400-
   EAST CENTRAL IOWA

CITY           SKY/WX    TMP DP  RH WIND       PRES   REMARKS
DAVENPORT      PTCLDY    75  70  84 S6        30.02R
IOWA CITY      MOCLDY    76  71  85 S3        30.02R
MT. PLEASANT * PTCLDY    76  68  77 S7        30.02S
MUSCATINE *    PTCLDY    75  70  83 S7        30.01S
QUAD CITIES    PTCLDY    79  69  71 S7        30.01R HX  81
$$

IAZ062-063-075>077-085>089-095>099-020400-
   SOUTHEAST IOWA

CITY           SKY/WX    TMP DP  RH WIND       PRES   REMARKS
BURLINGTON     CLEAR     77  71  82 S6        30.03R
FAIRFIELD *    MOCLDY    77  68  73 S6        30.02R
FORT MADISON * CLEAR     75  72  88 S6        30.04R
KEOKUK *       CLEAR     79  70  73 S6        30.03R HX  81
OSKALOOSA *      N/A     73  69  87 S5        30.02R
CENTERVILLE *    N/A     73  70  88 S5        30.04R
OTTUMWA        PTCLDY    75  70  84 S7        30.00R
WASHINGTON *     N/A    N/A N/A N/A MISG        N/A
$$

ABBREVIATIONS USED IN REMARKS
   TC - TEMPERATURES IN CELSIUS
  WCI - WIND CHILL INDEX
   HX - HEAT INDEX
  VSB - VISIBILITY
$$




USA.gov is the U.S. government's official web portal to all federal, state and local government web resources and services.